Regional Weather Roundup
Issued by NWS

Home | Current Version | Previous Version | Graphics & Text | Print | Product List | Glossary On
Versions: 1 2 3 4 5 6 7 8 9 10 11 12 13 14 15 16 17 18 19 20 21 22 23 24 25 26 27 28 29 30 31 32 33 34 35 36 37 38 39 40 41 42 43 44 45 46 47 48 49 50
000
ASUS44 KMEG 281410
RWRTN
TENNESSEE HOURLY STATE WEATHER ROUNDUP
NATIONAL WEATHER SERVICE MEMPHIS TN
900 AM CDT SAT MAR 28 2015

TNZ002-004-019-021-049-052-054-088>092-281500-
WEST TENNESSEE

CITY           SKY/WX    TMP DP  RH WIND       PRES   REMARKS
MEMPHIS INTL   CLOUDY    40  19  43 E6        30.29R
NWS MEMPHIS      N/A     38 N/A N/A MISG        N/A
JACKSON        SUNNY     38  23  55 N5        30.29R WCI  34
DYERSBURG      MOSUNNY   37  16  41 NE3       30.32R
UNION CITY     SUNNY     32  25  74 VRB5      30.29R WCI  27
PARIS          SUNNY     30  16  55 NE8       30.28R WCI  23
LEXINGTON      SUNNY     34  18  51 NE9       30.25S WCI  26
SAVANNAH       SUNNY     36  25  64 NE3       30.26R
$$

TNZ008-025-027-028-033-062-065-066-281500-
NORTH MIDDLE TENNESSEE

CITY           SKY/WX    TMP DP  RH WIND       PRES   REMARKS
NASHVILLE      MOSUNNY   34  13  41 N13       30.26R WCI  25
CLARKSVILLE    SUNNY     32  21  64 N9        30.28R WCI  24
SMYRNA         SUNNY     33  17  52 N9        30.27R WCI  25
COOKEVILLE     SUNNY     30  19  64 N7        30.18S WCI  23
CROSSVILLE     CLOUDY    31  18  58 N12       30.14R WCI  22
$$

TNZ061-075-076-078-094-096-097-281500-
SOUTH MIDDLE TENNESSEE

CITY           SKY/WX    TMP DP  RH WIND       PRES   REMARKS
FAYETTEVILLE   SUNNY     30  19  64 N9        30.21R WCI  22
TULLAHOMA      SUNNY     30  18  59 N8        30.21R WCI  23
WINCHESTER     SUNNY     30  18  59 N8        30.21R WCI  23
MCMINNVILLE    MOSUNNY   30  21  69 NE12      30.20R WCI  21
COLUMBIA       SUNNY     32  23  69 N7        30.23R WCI  26
SHELBYVILLE    SUNNY     32  23  69 N6        30.24R WCI  26
$$

TNZ017-018-042-046-047-281500-
NORTHEAST TENNESSEE

CITY           SKY/WX    TMP DP  RH WIND       PRES   REMARKS
TRI CITIES     MOSUNNY   29  11  47 W10       30.12R WCI  20
ELIZABETHTON   PTSUNNY   28   9  43 W13       30.10R WCI  18
$$

TNZ012-013-036-069-073-074-281500-
CENTRAL EAST TENNESSEE

CITY           SKY/WX    TMP DP  RH WIND       PRES   REMARKS
KNOXVILLE      MOSUNNY   34  17  50 N12       30.17R WCI  25
OAK RIDGE      SUNNY     35  15  44 N6        30.20R WCI  30
GATLINBURG     MOSUNNY   32  18  55 NW8       30.16R WCI  25
MORRISTOWN     SUNNY     30  16  55 N8        30.15R WCI  23
$$

TNZ083-085-099-281500-
SOUTHEAST TENNESSEE

CITY           SKY/WX    TMP DP  RH WIND       PRES   REMARKS
CHATTANOOGA    MOSUNNY   37  17  44 N9        30.20R WCI  30
$$

SKY/WX REPORTED AS FAIR MEANS FEW OR NO CLOUDS BELOW
12 THOUSAND FEET.



USA.gov is the U.S. government's official web portal to all federal, state and local government web resources and services.